Regional Weather Roundup
Issued by NWS Pendleton, OR

Home | Current Version | Previous Version | Text Only | Print | Product List | Glossary On
Versions: 1 2 3 4 5 6 7 8 9 10 11 12 13 14 15 16 17 18 19 20 21 22 23 24 25 26 27 28 29 30 31 32 33 34 35 36 37 38 39 40 41 42 43 44 45 46 47 48 49 50
000
ASUS46 KPDT 300004
RWRPDT
PENDLETON REGIONAL WEATHER ROUNDUP
NATIONAL WEATHER SERVICE PENDLETON OREGON
500 PM PDT FRI APR 29 2016

NOTE: FAIR INDICATES FEW OR NO CLOUDS BELOW 12,000 FEET WITH NO
SIGNIFICANT WEATHER AND/OR OBSTRUCTIONS TO VISIBILITY.

# INDICATES UNOFFICIAL STATION AND DATA

WAZ520-300110-
EAST SLOPES OF WASHINGTON CASCADES

CITY            SKY/WX      TMP DP  RH  WIND    PRES   REMARKS
#CLE ELUM HS    N/A         53  37  54  SW10    29.99
#CLE ELUM 2NW   N/A         51  36  56  SW6     N/A
#CLE ELUM LAKE  N/A         51  39  63  NW2     30.01
#GLENWOOD       N/A         60  39  46  SW7     30.01
#MANASTASH CYN  N/A         54  30  40  NW3     29.97
#NELSON 3SW     N/A         48  35  60  S1      30.23
#NILE           N/A         54  37  52  W6      29.30
#RONALD 2NW     N/A         47  N/A N/A W1      29.88
#TEANAWAY 4NE   N/A         56  40  55  W7      N/A
#TROUT LAKE 1NE N/A         55  40  57  W9      30.03
#TROUT LAKE 1E  N/A         56  40  55  CALM    30.00
$$

WAZ521-300110-
SIMCOE HIGHLANDS

CITY            SKY/WX      TMP DP  RH  WIND    PRES   REMARKS
#BICKLETON HS   N/A         52  28  39  VRB6    N/A
#CENTERVILLE 1SWN/A         55  40  57  W23     29.97
#GOLDENDALE 1NE N/A         59  29  32  SW8     N/A
#GOODNOE HILLS  N/A         60  44  55  W23     29.90
#LYLE 6NE       N/A         55  42  61  SW18G26 30.01
$$

WAZ026-300110-
KITTITAS VALLEY

CITY            SKY/WX      TMP DP  RH  WIND    PRES   REMARKS
ELLENSBURG AP   PTCLDY      59  36  42  NW30G41 29.97
6HR MIN TEMP:   53; 6HR MAX TEMP:   61;

YTC-OPS AREA    MOCLDY      52  32  46  W28G36  29.97
6HR MIN TEMP:   45; 6HR MAX TEMP:   57;

#ELLENSBURG CWU N/A         58  36  44  N22     29.91
#ELLENSBURG 3NE N/A         56  40  55  NW12G26 29.96
#ELLENSBURG     N/A         60  37  42  W10     N/A
#KITTITAS 3S    N/A         58  39  49  NW18G26 29.93
#THORP 6N       N/A         51  38  61  W28G38  29.99
$$

WAZ027-300110-
YAKIMA VALLEY

CITY            SKY/WX      TMP DP  RH  WIND    PRES   REMARKS
SUNNYSIDE AP    CLOUDY      60  39  46  SW9     29.97
6HR MIN TEMP:   57; 6HR MAX TEMP:   62;

YAKIMA AIRPORT  PTCLDY      66  33  29  NW23G36 29.98
6HR MIN TEMP:   60; 6HR MAX TEMP:   69;

YAKIMA-VAGABOND MOSUNNY     63  30  29  N20G26  29.96
6HR MIN TEMP:   56; 6HR MAX TEMP:   65;

#GRANDVIEW      N/A         62  37  39  W2      29.97
#MABTON         N/A         63  41  44  SW5     29.97
#MOXEE 2E       N/A         64   6  10  W12     29.89S
#NACHES 2SW     N/A         57  35  43  W15G25  30.00
#TERRACE HTS    N/A         68  35  29  N7      29.92
#TOPPENISH      N/A         65  37  35  CALM    29.87
#WEST VALLEY    N/A         60  34  37  N12G25  29.95
#W YAKIMA       N/A         60  36  41  W6      29.97
#WHITE SWAN 5E  N/A         65  38  37  W12     29.97
#WILEY CITY 3W  N/A         64  34  33  CALM    29.94
$$

WAZ028-300110-
LOWER COLUMBIA BASIN...WASHINGTON

CITY            SKY/WX      TMP DP  RH  WIND    PRES   REMARKS
PASCO           CLOUDY      63  43  48  NW3     29.98
6HR MIN TEMP:   58; 6HR MAX TEMP:   66; 6HR PCP:  TRACE;

PROSSER AWOS    N/A         63  41  44  SW6     30.00
RICHLAND AWOS   MOCLDY      65  42  43  SW7     29.98
#BENTON CITY    N/A         60  41  49  W3      29.88
#CONNELL 5N     N/A         58  51  77  W5      29.95
#CONNELL 5NW    N/A         58  51  77  W2      29.92
#ELTOPIA 6NW    N/A         62  48  60  CALM    28.94
#KAHLOTUS       N/A         55  48  77  NW8     29.96
#KENNEWICK 3S   N/A         61  44  53  CALM    29.97
#PATERSON       N/A         60  45  58  W7      29.97
#SAGEMOOR 2W    N/A         61  47  60  W5      29.81
#TOUCHET 2S     N/A         59  47  64  SW7     29.95
#WEST PASCO     N/A         65  45  48  W2      30.03
$$

WAZ029-300110-
FOOTHILLS OF THE BLUES...WASHINGTON

CITY            SKY/WX      TMP DP  RH  WIND    PRES   REMARKS
WALLA WALLA AP  CLOUDY      53  45  74  S12     29.99
6HR MIN TEMP:   51; 6HR MAX TEMP:   56; 6HR PCP:  0.01;

#CLYDE 6NW      N/A         56  48  74  W3      29.95
#DAYTON SCHOOL  N/A         51  40  66  S5      30.00
#LOWDEN 2SE     N/A         60  47  62  W6      29.95
#PLEASANT VIEW 1N/A         55  47  74  SW1     30.00
#PRESCOTT       N/A         52  48  86  SW3     29.96
#SUDBURY        N/A         57  N/A N/A CALM    N/A
#WHITMAN COLLEGEN/A         53  47  80  SE6     30.03
#WAITSBURG 5S   N/A         51  47  86  S12     30.06
#WAITSBURG 8N   N/A         51  28  41  S10     29.82
#WALLA WALLA U  N/A         56  49  77  CALM    29.98
#WHITMAN MISSIONN/A         58  49  72  SW2     29.98
$$

WAZ030-300110-
BLUE MOUNTAINS...WASHINGTON

CITY            SKY/WX      TMP DP  RH  WIND    PRES   REMARKS
#DIXIE 5SE      N/A         43  40  89  S10     29.91
$$

ORZ009-041-WAZ024-300110-
COLUMBIA RIVER GORGE

CITY            SKY/WX      TMP DP  RH  WIND    PRES   REMARKS
HOOD RIVER AP   SUNNY       61  41  48  W9      30.07
THE DALLES AP   MOCLDY      65  37  35  W17G28  30.03
6HR MIN TEMP:   59; 6HR MAX TEMP:   67;

#ARLINGTON AIRPON/A         60  42  51  W12     30.00
#CELILO DOT     N/A         63  41  44  W12     N/A
#MARYHILL 2W    N/A         60  41  49  SW13    N/A
#MOSIER 1S      N/A         60  30  32  N6      30.03S
#MURDOCK        N/A         62  43  50  W20G29  29.99
#RUFUS DOT      N/A         64  40  41  W22     N/A

$$

ORZ510-300110-
NORTH CENTRAL OREGON

CITY            SKY/WX      TMP DP  RH  WIND    PRES   REMARKS
#ANTELOPE       N/A         52  37  56  CALM    29.93
#COW CYN RST AREN/A         53  31  43  W14     N/A
#DUFUR 9E       N/A         53  37  54  W18G32  30.09
#GRASS VALLEY   N/A         55  36  49  N3      N/A
#GRASS VALLEY 1SN/A         56  38  51  NW17G25 29.97
#KENT DOT       N/A         55  29  37  N14     N/A
#MAUPIN SCHOOL  N/A         61  35  38  VRB9    30.06
#MORO SCHOOL    N/A         57  41  55  NW16G26 30.03
#SHANIKO 5WSW   N/A         49  28  44  NW8     N/A
#TYGH VALLEY 2NEN/A         61  38  42  NW12    30.03
#WAPANITIA AIRPON/A         57  38  49  W12     30.05
#WASCO DOT      N/A         60  39  46  W13     N/A
#WASCO 5NE      N/A         59  42  53  W8      30.00
$$

ORZ511-300110-
CENTRAL OREGON

CITY            SKY/WX      TMP DP  RH  WIND    PRES   REMARKS
BEND AIRPORT    LGT RAIN    46  37  71  N9      30.06
MADRAS AIRPORT  CLOUDY      55  32  41  NW17G29 30.08
PRINEVILLE AP   CLOUDY      54  34  47  NW16    30.05S
REDMOND AIRPORT RAIN        48  38  68  NW5     30.06
6HR MIN TEMP:   47; 6HR MAX TEMP:   54; 6HR PCP:  0.02;

#ASHWOOD SCHOOL N/A         51  37  59  CALM    30.01
#BEND 1SW       N/A         50  34  54  W3      N/A
#BEND-AWBREY    N/A         53  35  50  N6      30.06
#BEND-KIM LN    N/A         53  35  50  NW7     30.02
#CULVER         N/A         53  35  50  W6      30.02
#LAKE BILLY CHINN/A         53  N/A N/A NW21    30.12
#POWELL BUTTE   N/A         53  39  59  NW9     29.92
#PRINEVILLE 3N  N/A         53  37  54  W20     30.04
#WARM SPRINGS   N/A         58  37  45  S13     30.04

$$


ORZ509-300110-
EAST SLOPES OF OREGON CASCADES

CITY            SKY/WX      TMP DP  RH  WIND    PRES   REMARKS
SISTERS AWOS    N/A         52  36  54  SW21G32 30.04
#BLUE BOX PASS  N/A         38  N/A N/A W5      N/A
#BLACK BUTTE RNCN/A         50  38  63  NE1     30.07
#CAMP SHERMAN   N/A         51  33  50  N5      30.15
#LA PINE 4NW    N/A         47  32  56  W1      30.09
#LAVA BUTTE DOT N/A         46  32  58  CALM    N/A
#SISTERS AIRPOR N/A         50  40  68  N14     30.17
#SISTERS ODOT   N/A         52  N/A N/A S9      N/A
#SISTERS 3N     N/A         53  35  50  CALM    30.06
#SUNRIVER       N/A         47  36  65  CALM    30.07
#SUTTLE LK DOT  N/A         45  36  70  N12     N/A    WCI 39
#TUMALO 3W      N/A         50  35  56  NW16    29.94
#WANOGA BUTTE D N/A         40  28  62  NW8     N/A

$$

ORZ044-300110-
LOWER COLUMBIA BASIN...OREGON

CITY            SKY/WX      TMP DP  RH  WIND    PRES   REMARKS
HERMISTON       N/A         62  43  50  W12     29.99
6HR MIN TEMP:   57; 6HR MAX TEMP:   64; 6HR PCP:  TRACE;

#BOARDMAN SCHOOLN/A         64  44  48  S10     29.98
#BOARDMAN 8SW   N/A         62  46  56  SW14    29.98
#ECHO 8SW       N/A         60  44  55  W3      30.01
#I-84 EX 198 DOTN/A         56  42  59  E12     N/A
#UMATILLA SCHOOLN/A         62  50  65  CALM    29.98
#UMATILLA       N/A         62  42  48  SW5     29.92
$$

ORZ507-300110-
NORTHERN FOOTHILLS OF THE BLUES

CITY            SKY/WX      TMP DP  RH  WIND    PRES   REMARKS
PENDLETON AIRPT MOCLDY      56  38  51  W13     29.99
6HR MIN TEMP:   53; 6HR MAX TEMP:   57; 6HR PCP:  TRACE;

#ADAMS 3WNW     N/A         52  45  77  SW7     29.99
#ATHENA         N/A         51  46  83  CALM    30.01
#CAYUSE         N/A         51  44  77  CALM    29.99
#HELIX SCHOOL   N/A         53  46  77  W6      29.98
#HELIX 3N       N/A         52  45  77  SW12    29.96
#HELIX 6SW      N/A         53  46  77  W9      29.99
#HOLDMAN 5SE    N/A         56  46  69  W8      29.98
#HOLDMAN 6E     N/A         54  47  77  N8      29.79
#M-F FERNDALE   N/A         56  48  74  CALM    29.98
#M-F GROVE ELEM N/A         54  46  74  CALM    29.97
#M-FREEWATER 5SEN/A         53  45  74  S7      29.99
#PENDLETON DNTN N/A         57  38  49  W1      30.01
#PDT AQUATIC CTRN/A         57  37  47  W7      30.02
#PDT SUNRIDGE   N/A         56  41  57  W6      30.01
#PENDLETON 7NW  N/A         56  44  64  W8      27.45
#PILOT ROCK     N/A         53  38  57  W2      30.02
#TUTUILLA       N/A         54  42  64  CALM    30.00
#UMAPINE 2E     N/A         58  48  69  S2      29.96
#WESTON SCHOOL  N/A         49  43  80  W5      29.92

$$

ORZ508-300110-
SOUTHERN FOOTHILLS OF THE BLUES

CITY            SKY/WX      TMP DP  RH  WIND    PRES   REMARKS
#AJAX           N/A         55  31  40  S12     27.76
#CONDON SCHOOL  N/A         52  37  56  NW8     29.98
#CONDON 5W      N/A         50  34  54  NW13    30.00
#FOSSIL SCHOOL  N/A         54  35  48  NW7     29.97
#HEPPNER EOC    N/A         49  43  80  W5      29.96
#HEPPNER 4NE    N/A         46  41  83  SW3     30.01
#LEXINGTON 2SE  N/A         53  44  71  SW3     29.97
#MIKKALO        N/A         59  35  40  NW8     30.11
#RUGGS 5NE      N/A         46  43  89  W3      30.20
#RUGGS 2SW      N/A         49  40  71  NW6     30.04

$$

ORZ502-503-300110-
BLUE MOUNTAINS

CITY            SKY/WX      TMP DP  RH  WIND    PRES   REMARKS
MEACHAM         CLOUDY      43  39  86  CALM    30.00
#BATTLE MTN DOT N/A         43  40  89  CALM    N/A
#GREENHORN 9SW  N/A         47  36  65  W5      26.19
#HARDMAN 10S    N/A         61  34  36  N5      30.22
#HEPPNER 15SE   N/A         40  38  92  W1      25.54
#LADD CYN SMT   N/A         46  34  63  NW10    N/A
#LADD CREEK ODOTN/A         48  33  56  NW5     N/A
#LONG CREEK HS  N/A         44  42  93  CALM    N/A
#N POWDER DOT   N/A         50  39  66  N17     N/A
#PIKES PEAK     N/A         41  40  96  S15     27.99  WCI 33
#TOLLGATE       N/A         35  34  96  S3      29.85
#TROY SCHOOL    N/A         53  45  74  SE7     29.81
#UKIAH          N/A         47  37  68  NW3     29.92
#WESTON 4E      N/A         43  42  96  S3      29.97
$$

ORZ505-300110-
JOHN DAY BASIN

CITY            SKY/WX      TMP DP  RH  WIND    PRES   REMARKS
JOHN DAY        CLOUDY      47  38  71  W13     30.01  WCI 41
#DAYVILLE SCHOOLN/A         49  39  68  N3      30.00
#MITCHELL       N/A         48  40  74  CALM    30.18
#MITCHELL 8NW   N/A         48  33  56  W1      30.23
#MONUMENT HS    N/A         53  36  52  NW9     30.02
#MT. VERNON 5SE N/A         45  35  68  SW7     29.96
#SPRAY SCHOOL   N/A         55  N/A N/A CALM    N/A
#WINLOCK        N/A         50  36  58  E3      29.99
$$

ORZ506-300110-
OCHOCO AND JOHN DAY HIGHLANDS

CITY            SKY/WX      TMP DP  RH  WIND    PRES   REMARKS
#BUCK CREEK DOT N/A         44  39  82  NW16    N/A    WCI 37
#HORSE RIDGE DO N/A         44  34  68  NW14    N/A    WCI 37
#KEYES SMT DOT  N/A         41  34  76  S15     N/A    WCI 33
#PAULINA SCHOOL N/A         47  32  56  N3      29.24
#PINE MTN OBS   N/A         32  31  96  N10G29  N/A
#PRAIRIE CITY   N/A         48  41  77  W3      29.97
#SENECA         N/A         45  N/A N/A N7      N/A
#SENECA 9NW     N/A         46  34  63  CALM    29.97
$$

ORZ049-300110-
GRANDE RONDE VALLEY

CITY            SKY/WX      TMP DP  RH  WIND    PRES   REMARKS
LA GRANDE       CLOUDY      50  34  54  N14     29.99
#COVE           N/A         48  43  83  NW1     30.02
#COVE SCHOOL    N/A         48  41  77  CALM    30.01
#COVE 6NW       N/A         39  35  85  CALM    29.63
#ELGIN 3N       N/A         51  38  61  CALM    29.97
#ELGIN 1E       N/A         50  38  63  W7      N/A
#IMBLER SCHOOL  N/A         48  37  65  W6      29.95
#ISLAND CITY 4N N/A         61  54  78  CALM    30.14
#LADD CYN DOT   N/A         49  38  66  NW13    N/A    WCI 44
#UNION 1S       N/A         49  41  74  N6      29.90
$$

ORZ050-300110-
WALLOWA COUNTY

CITY            SKY/WX      TMP DP  RH  WIND    PRES   REMARKS
#ENTERPRISE AP  N/A         49  29  46  CALM    29.91
#ENTERPRISE HS  N/A         45  40  82  N6      29.99
#IMNAHA SCHOOL  N/A         50  45  83  SW3     29.97
#IMNAHA 10S     N/A         46  43  89  CALM    29.97
#JOSEPH 3N      N/A         44  38  79  N7      29.98
#JOSEPH 3W      N/A         41  40  96  CALM    29.80
#LOSTINE        N/A         46  40  79  NW3     29.77
#MT HOWARD 8000 N/A         31  30  96  CALM    29.93
#PROMISE 1S     N/A         43  38  82  E3      30.09
#WALLOWA SCHOOL N/A         48  40  74  NW1     29.95



$$



USA.gov is the U.S. government's official web portal to all federal, state and local government web resources and services.